Date String (YYYY-MM-DD hh:mm:ss) UTC,Instrument flags,absolute air pressure of the measurement (hPa),sample flow rate (lpm),inlet stack bypass flow (lpm),air temperature of the measurement (°C),ambient temperature measured by the external sensor (°C),aerosol sample conditioner tube jacket temperature (°C),OPC LED temperature (°C),internal box temperature (°C),relative humidity of the measurement (%),span deviation,mass concentration of particles derived from Lorenz-Mie calculation of OPC scattering (μg/m³),mass concentration of particles derived from Lorenz-Mie calculation of OPC scattering (μg/m³),mass concentration of particles derived from Lorenz-Mie calculation of OPC scattering (μg/m³)
DateTimeUTC,F1_M11,P_M11,Q1_M11,Q2_M11,T1_M11,T2_M11,T3_M11,T4_M11,T5_M11,U1_M11,ZSPAN_M11,X0_M11,X2_M11,X1_M11
2024-03-22 09:00:00,SystemResetWarning,0830.3,5.01,000.00,021.9,020.8,000.0,030.7,023.8,19.1,0000.0,0012.74,0004.02,0002.72
2024-03-22 09:01:00,SystemResetWarning,0830.3,5.01,000.00,021.9,020.8,000.0,030.7,023.8,19.1,0000.0,0013.28,0004.05,0002.71
2024-03-22 09:02:00,SystemResetWarning,0830.3,5.01,000.00,021.9,020.8,000.0,030.7,023.8,19.1,0000.0,0012.99,0004.04,0002.70
2024-03-22 09:03:00,SystemResetWarning,0830.3,5.01,000.00,021.9,020.8,000.0,030.7,023.7,19.1,0000.0,0013.77,0004.01,0002.67
2024-03-22 09:04:00,SystemResetWarning,0830.3,4.99,000.00,021.9,020.8,000.0,030.7,023.7,19.1,0000.0,0014.39,0003.98,0002.65
2024-03-22 09:05:00,SystemResetWarning,0830.3,4.99,000.00,021.9,020.9,000.0,030.6,023.7,19.1,0000.0,0014.28,0003.93,0002.61
2024-03-22 09:06:00,SystemResetWarning,0830.4,5.01,000.00,021.9,020.9,000.0,030.6,023.8,19.1,0000.0,0015.89,0003.92,0002.61
2024-03-22 09:07:00,SystemResetWarning,0830.4,5.01,000.00,021.9,020.9,000.0,030.6,023.8,19.1,0000.0,0016.14,0003.93,0002.61
2024-03-22 09:08:00,SystemResetWarning,0830.4,5.01,000.00,021.9,020.9,000.0,030.6,023.8,19.1,0000.0,0017.14,0003.92,0002.59
2024-03-22 09:09:00,SystemResetWarning,0830.3,5.01,000.00,021.9,020.9,000.0,030.6,023.7,19.1,0000.0,0017.74,0003.94,0002.58
2024-03-22 09:10:00,SystemResetWarning,0830.3,5.00,000.00,021.8,020.8,000.0,030.6,023.7,19.1,0000.0,0017.48,0003.90,0002.55
2024-03-22 09:11:00,SystemResetWarning,0830.3,5.00,000.00,021.8,020.8,000.0,030.6,023.7,19.2,0000.0,0016.42,0003.81,0002.51
2024-03-22 09:12:00,SystemResetWarning,0830.3,4.99,000.00,021.8,020.7,000.0,030.6,023.6,19.1,0000.0,0015.80,0003.76,0002.51
2024-03-22 09:13:00,SystemResetWarning,0830.3,4.99,000.00,021.8,020.7,000.0,030.5,023.6,19.1,0000.0,0015.48,0003.75,0002.51
2024-03-22 09:14:00,SystemResetWarning,0830.3,5.01,000.00,021.8,020.7,000.0,030.5,023.6,19.1,0000.0,0014.30,0003.71,0002.51
2024-03-22 09:15:00,SystemResetWarning,0830.3,5.01,000.00,021.7,020.7,000.0,030.5,023.6,19.2,0000.0,0013.43,0003.73,0002.52
2024-03-22 09:16:00,SystemResetWarning,0830.3,5.00,000.00,021.7,020.7,000.0,030.5,023.6,19.2,0000.0,0014.01,0003.76,0002.53
2024-03-22 09:17:00,SystemResetWarning,0830.3,5.00,000.00,021.7,020.6,000.0,030.5,023.5,19.2,0000.0,0012.42,0003.78,0002.54
2024-03-22 09:18:00,SystemResetWarning,0830.3,5.00,000.00,021.7,020.6,000.0,030.5,023.5,19.3,0000.0,0011.91,0003.83,0002.55
2024-03-22 09:19:00,SystemResetWarning,0830.3,5.00,000.00,021.7,020.6,000.0,030.5,023.5,19.3,0000.0,0011.45,0003.85,0002.58
2024-03-22 09:20:00,SystemResetWarning,0830.3,5.00,000.00,021.7,020.5,000.0,030.5,023.5,19.3,0000.0,0011.69,0003.85,0002.59
2024-03-22 09:21:00,SystemResetWarning,0830.2,4.99,000.00,021.6,020.5,000.0,030.4,023.5,19.3,0000.0,0011.65,0003.83,0002.60
2024-03-22 09:22:00,SystemResetWarning,0830.3,5.00,000.00,021.6,020.5,000.0,030.4,023.4,19.4,0000.0,0012.12,0003.88,0002.61
2024-03-22 09:23:00,SystemResetWarning,0830.3,5.01,000.00,021.6,020.5,000.0,030.4,023.4,19.4,0000.0,0013.47,0003.92,0002.63
2024-03-22 09:24:00,SystemResetWarning,0830.3,5.01,000.00,021.6,020.5,000.0,030.4,023.4,19.5,0000.0,0014.21,0003.93,0002.63
2024-03-22 09:25:00,SystemResetWarning,0830.2,5.00,000.00,021.6,020.4,000.0,030.4,023.4,19.5,0000.0,0014.40,0003.97,0002.64
2024-03-22 09:26:00,SystemResetWarning,0830.3,5.00,000.00,021.6,020.4,000.0,030.3,023.4,19.5,0000.0,0014.89,0003.96,0002.66
2024-03-22 09:27:00,SystemResetWarning,0830.2,4.99,000.00,021.5,020.4,000.0,030.3,023.4,19.5,0000.0,0014.84,0003.97,0002.65
2024-03-22 09:28:00,SystemResetWarning,0830.2,5.00,000.00,021.5,020.4,000.0,030.3,023.4,19.5,0000.0,0015.30,0003.97,0002.65
2024-03-22 09:29:00,SystemResetWarning,0830.3,5.00,000.00,021.5,020.4,000.0,030.3,023.3,19.5,0000.0,0015.93,0003.91,0002.65
2024-03-22 09:30:00,SystemResetWarning,0830.2,5.00,000.00,021.5,020.4,000.0,030.3,023.3,19.5,0000.0,0015.78,0003.90,0002.64
2024-03-22 09:31:00,SystemResetWarning,0830.2,5.00,000.00,021.5,020.4,000.0,030.3,023.3,19.6,0000.0,0014.86,0003.88,0002.65
2024-03-22 09:32:00,SystemResetWarning,0830.3,5.00,000.00,021.5,020.4,000.0,030.3,023.3,19.5,0000.0,0014.54,0003.86,0002.66
2024-03-22 09:33:00,SystemResetWarning,0830.2,5.00,000.00,021.5,020.4,000.0,030.2,023.3,19.5,0000.0,0014.80,0003.87,0002.68
2024-03-22 09:34:00,SystemResetWarning,0830.2,5.00,000.00,021.5,020.4,000.0,030.2,023.3,19.5,0000.0,0013.66,0003.86,0002.66
2024-03-22 09:35:00,SystemResetWarning,0830.2,5.00,000.00,021.4,020.4,000.0,030.2,023.3,19.6,0000.0,0013.61,0003.90,0002.67
2024-03-22 09:36:00,SystemResetWarning,0830.2,5.00,000.00,021.4,020.4,000.0,030.2,023.3,19.6,0000.0,0014.36,0003.89,0002.68
2024-03-22 09:37:00,SystemResetWarning,0830.2,5.00,000.00,021.4,020.4,000.0,030.2,023.2,19.6,0000.0,0014.53,0003.92,0002.68
2024-03-22 09:38:00,SystemResetWarning,0830.2,5.00,000.00,021.4,020.4,000.0,030.2,023.2,19.6,0000.0,0014.19,0003.93,0002.70
2024-03-22 09:39:00,SystemResetWarning,0830.3,4.99,000.00,021.4,020.3,000.0,030.2,023.2,19.6,0000.0,0013.85,0003.93,0002.72
2024-03-22 09:40:00,SystemResetWarning,0830.2,5.00,000.00,021.4,020.4,000.0,030.1,023.2,19.6,0000.0,0013.15,0003.98,0002.74
2024-03-22 09:41:00,SystemResetWarning,0830.3,5.00,000.00,021.4,020.3,000.0,030.1,023.2,19.7,0000.0,0012.72,0003.98,0002.75
2024-03-22 09:42:00,SystemResetWarning,0830.2,5.00,000.00,021.3,020.3,000.0,030.1,023.2,19.7,0000.0,0013.22,0004.01,0002.77
2024-03-22 09:43:00,SystemResetWarning,0830.3,5.00,000.00,021.3,020.3,000.0,030.1,023.2,19.7,0000.0,0013.84,0004.10,0002.79
2024-03-22 09:44:00,SystemResetWarning,0830.2,5.00,000.00,021.3,020.3,000.0,030.1,023.1,19.7,0000.0,0013.31,0004.14,0002.80
2024-03-22 09:45:00,SystemResetWarning,0830.2,5.00,000.00,021.3,020.3,000.0,030.1,023.1,19.7,0000.0,0013.49,0004.18,0002.83
2024-03-22 09:46:00,SystemResetWarning,0830.2,5.00,000.00,021.3,020.3,000.0,030.1,023.1,19.7,0000.0,0013.97,0004.15,0002.84
2024-03-22 09:47:00,SystemResetWarning,0830.2,5.01,000.00,021.3,020.3,000.0,030.0,023.1,19.7,0000.0,0013.05,0004.18,0002.87
2024-03-22 09:48:00,SystemResetWarning,0830.2,5.00,000.00,021.3,020.2,000.0,030.0,023.1,19.7,0000.0,0013.66,0004.18,0002.88
2024-03-22 09:49:00,SystemResetWarning,0830.1,5.00,000.00,021.3,020.2,000.0,030.0,023.1,19.8,0000.0,0013.84,0004.11,0002.86
2024-03-22 09:50:00,SystemResetWarning,0830.1,5.00,000.00,021.2,020.2,000.0,030.0,023.1,19.8,0000.0,0014.23,0004.11,0002.88
2024-03-22 09:51:00,SystemResetWarning,0830.1,5.00,000.00,021.2,020.2,000.0,030.0,023.1,19.8,0000.0,0014.02,0004.09,0002.89
2024-03-22 09:52:00,SystemResetWarning,0830.2,5.00,000.00,021.2,020.2,000.0,030.0,023.1,19.8,0000.0,0014.24,0004.12,0002.90
2024-03-22 09:53:00,SystemResetWarning,0830.1,5.00,000.00,021.2,020.2,000.0,030.0,023.0,19.8,0000.0,0014.38,0004.12,0002.91
2024-03-22 09:54:00,SystemResetWarning,0830.1,5.00,000.00,021.2,020.2,000.0,030.0,023.0,19.8,0000.0,0014.15,0004.09,0002.92
2024-03-22 09:55:00,SystemResetWarning,0830.1,5.00,000.00,021.2,020.2,000.0,029.9,023.0,19.8,0000.0,0014.70,0004.12,0002.92
2024-03-22 09:56:00,SystemResetWarning,0830.1,5.00,000.00,021.2,020.2,000.0,029.9,023.0,19.9,0000.0,0014.68,0004.11,0002.94
2024-03-22 09:57:00,SystemResetWarning,0830.1,5.00,000.00,021.2,020.1,000.0,029.9,023.0,19.9,0000.0,0014.04,0004.12,0002.94
2024-03-22 09:58:00,SystemResetWarning,0830.1,5.00,000.00,021.1,020.1,000.0,029.9,023.0,19.9,0000.0,0015.06,0004.10,0002.92
2024-03-22 09:59:00,SystemResetWarning,0830.1,5.00,000.00,021.1,020.1,000.0,029.9,023.0,19.9,0000.0,0014.60,0004.08,0002.91
